星链-3317 (STARLINK-3317 )

导读

STARLINK-3317是美国SpaceX公司星链星座的卫星,于2021年12月18日发射升空。它属于星链计划的组网卫星,旨在为全球提供低延迟、高速率的宽带互联网服务,尤其覆盖偏远地区与网络基础设施薄弱区域,依托低轨轨道布局,助力全球互联网络覆盖的拓展。

Basic Information
目录编号:
50156
目录名称:
STARLINK-3317
国际标识:
2021-125A
轨道中心:
EARTH
卫星名称:
星链-3317
卫星全名:
星链-3317 (STARLINK-3317 )
卫星状态:
已陨落 最后检测时间 2025-12-31
发射日期:
2021-12-18 UTC
国别 :
美国 (US)
星等 :
--
Orbit Information
数据来源 国际轨道数据
星历时间: 2025-12-31T06:57:58+0800
轨道信息已过期168天
半长轴: 6531.117km
偏心率: 0.0006268
轨道倾角: 53.197°
近地点辐角 310.304°
升交点赤经 162.727°
平近点角 137.960°
近地点: 148.886km
远地点: 157.074km
周期: 87.547分钟
每日圈数: 16.448322
Detailed Information
固有亮度:
5
最大亮度:
2.5
卫星平台:
Starlink v1.5
覆盖范围:
全球
运营商:
太空探索技术公司
运营商所在国:
美国
制造商(研发单位):
太空探索技术公司
制造商所在国:
美国
使用方式:
暂无
Satellite Introduction
星链(Starlink)计划是由太空探索技术公司(SpaceX)提出的一个巨型低轨卫星互联网星座项目,计划在2019年至2024年间在太空搭建由约1.2万颗卫星组成的“星链”网络,其中1584颗将部署在地球上空550千米处的近地轨道,并从2020年开始工作。该卫星仍在工作。